Weather History for Centralia, IL

Change the Weather History Date:

Thursday, January 19, 2012

  Actual Average (KSLO) Record (KSLO)
Temperature  
Mean Temperature 30 °F -  
Max Temperature 36 °F 36 °F 62 °F (1974)
Min Temperature 25 °F 18 °F -10 °F (1977)
Degree Days  
Heating Degree Days 34    
Moisture  
Dew Point 24 °F    
Average Humidity 73    
Maximum Humidity 79    
Minimum Humidity 60    
Precipitation  
Precipitation 0.00 in - - ()
Sea Level Pressure  
Sea Level Pressure 30.00 in    
Wind  
Wind Speed 10 mph (West)    
Max Wind Speed 15 mph    
Max Gust Speed 18 mph    
Visibility 10 miles    
Events      
Averages and records for this station are not official NWS values.
T = Trace of Precipitation, MM = Missing Value Source: NWS Daily Summary

Daily Weather History Graph

Daily Weather History Graph

Search for Another Location

Airport:

Trip Planner

Search our weather history database for the weather conditions in past years. The results will help you decide how hot, cold, wet, or windy it might be!

Date:

Astronomy

Jan. 19, 2012 Rise Set
Actual Time 7:11 AM CST 5:03 PM CST
Civil Twilight 6:42 AM CST 5:32 PM CST
Nautical Twilight 6:09 AM CST 6:04 PM CST
Astronomical Twilight 5:38 AM CST 6:36 PM CST
Moon 3:46 AM CST (1/19) 1:36 PM CST (1/19)
Length of Visible Light 10h 49m
Length of Day
9h 52m
Waning Crescent, 15% of the Moon is Illuminated
Jan 19
Waning Crescent
Jan 23
New
Jan 30
First Quarter
Feb 7
Full
Feb 14
Last Quarter

Hourly Weather History & Observations

Time (CST) Temp. Windchill Dew Point Humidity Pressure Visibility Wind Dir Wind Speed Gust Speed Precip Events Conditions
12:15 AM 30.0 °F 21.1 °F 24.1 °F 79% 30.01 in 10.0 mi South 10.4 mph - N/A   Clear
12:35 AM 30.2 °F 21.3 °F 24.3 °F 79% 30.00 in 10.0 mi South 10.4 mph - N/A   Clear
12:55 AM 30.2 °F 20.8 °F 24.4 °F 79% 29.99 in 10.0 mi South 11.5 mph - N/A   Clear
1:15 AM 30.6 °F 21.2 °F 24.4 °F 78% 29.98 in 10.0 mi South 11.5 mph - N/A   Clear
1:35 AM 31.1 °F 21.4 °F 24.6 °F 77% 29.97 in 10.0 mi South 12.7 mph 17.3 mph N/A   Clear
1:55 AM 31.1 °F 20.5 °F 24.4 °F 76% 29.95 in 10.0 mi South 15.0 mph - N/A   Clear
2:15 AM 31.1 °F 21.4 °F 24.3 °F 76% 29.94 in 10.0 mi South 12.7 mph - N/A   Clear
2:35 AM 31.1 °F 21.4 °F 24.4 °F 76% 29.96 in 10.0 mi South 12.7 mph 17.3 mph N/A   Clear
2:55 AM 31.1 °F 21.9 °F 24.8 °F 77% 29.94 in 10.0 mi South 11.5 mph 17.3 mph N/A   Clear
3:15 AM 30.9 °F 22.2 °F 24.6 °F 77% 29.92 in 10.0 mi South 10.4 mph - N/A   Clear
3:35 AM 31.1 °F 24.5 °F 24.8 °F 77% 29.93 in 10.0 mi South 6.9 mph - N/A   Clear
3:55 AM 31.1 °F 23.7 °F 25.2 °F 79% 29.93 in 10.0 mi South 8.1 mph - N/A   Clear
4:15 AM 31.5 °F 22.9 °F 25.3 °F 78% 29.92 in 10.0 mi South 10.4 mph - N/A   Clear
4:35 AM 31.6 °F 24.4 °F 25.3 °F 78% 29.94 in 10.0 mi SSW 8.1 mph - N/A   Scattered Clouds
4:55 AM 32.0 °F 23.6 °F 25.5 °F 77% 29.95 in 10.0 mi SSW 10.4 mph - N/A   Scattered Clouds
5:15 AM 32.0 °F 22.5 °F 25.5 °F 77% 29.95 in 10.0 mi SSW 12.7 mph 17.3 mph N/A   Clear
5:35 AM 32.4 °F 24.0 °F 25.5 °F 76% 29.95 in 10.0 mi SSW 10.4 mph - N/A   Scattered Clouds
5:55 AM 32.5 °F 22.7 °F 25.5 °F 75% 29.95 in 10.0 mi SSW 13.8 mph 18.4 mph N/A   Scattered Clouds
6:15 AM 32.9 °F 24.7 °F 25.3 °F 74% 29.95 in 10.0 mi SSW 10.4 mph 17.3 mph N/A   Scattered Clouds
6:35 AM 32.9 °F 24.7 °F 25.3 °F 74% 29.95 in 10.0 mi SSW 10.4 mph 16.1 mph N/A   Mostly Cloudy
6:55 AM 33.1 °F 24.9 °F 25.2 °F 73% 29.95 in 10.0 mi SSW 10.4 mph - N/A   Scattered Clouds
7:15 AM 33.1 °F 24.9 °F 25.2 °F 73% 29.97 in 10.0 mi SSW 10.4 mph - N/A   Mostly Cloudy
7:35 AM 33.4 °F 27.3 °F 25.3 °F 72% 29.97 in 10.0 mi SSW 6.9 mph - N/A   Mostly Cloudy
7:55 AM 33.6 °F 27.5 °F 25.5 °F 72% 29.98 in 10.0 mi SW 6.9 mph - N/A   Scattered Clouds
8:15 AM 33.8 °F 29.6 °F 25.9 °F 73% 29.98 in 10.0 mi SW 4.6 mph - N/A   Scattered Clouds
8:35 AM 34.2 °F 30.0 °F 25.9 °F 72% 29.99 in 10.0 mi SW 4.6 mph - N/A   Clear
8:55 AM 34.7 °F 30.6 °F 25.9 °F 70% 30.00 in 10.0 mi WSW 4.6 mph - N/A   Clear
9:15 AM 34.9 °F 30.8 °F 25.9 °F 70% 29.99 in 10.0 mi WSW 4.6 mph - N/A   Clear
9:35 AM 34.9 °F 30.8 °F 25.9 °F 70% 30.00 in 10.0 mi WSW 4.6 mph - N/A   Clear
9:55 AM 35.6 °F 32.8 °F 25.3 °F 66% 29.99 in 10.0 mi WSW 3.5 mph - N/A   Clear
10:15 AM 35.8 °F 31.9 °F 25.5 °F 66% 29.99 in 10.0 mi WSW 4.6 mph - N/A   Clear
10:35 AM 36.0 °F 33.3 °F 25.7 °F 66% 29.99 in 10.0 mi WSW 3.5 mph - N/A   Clear
10:55 AM 36.5 °F 31.8 °F 25.3 °F 64% 29.99 in 10.0 mi WSW 5.8 mph - N/A   Clear
11:15 AM 36.5 °F 33.9 °F 23.7 °F 60% 29.98 in 10.0 mi WSW 3.5 mph - N/A   Clear
11:35 AM 36.5 °F 31.0 °F 24.3 °F 61% 29.99 in 10.0 mi West 6.9 mph - N/A   Clear
12:15 PM 36.7 °F 31.2 °F 25.2 °F 63% 29.99 in 10.0 mi NNW 6.9 mph - N/A   Clear
12:35 PM 36.3 °F 30.1 °F 25.5 °F 65% 29.99 in 10.0 mi NNW 8.1 mph - N/A   Clear
12:55 PM 36.7 °F 30.5 °F 26.4 °F 66% 29.99 in 10.0 mi North 8.1 mph - N/A   Scattered Clouds
1:15 PM 36.0 °F 30.3 °F 25.9 °F 67% 29.98 in 10.0 mi North 6.9 mph - N/A   Scattered Clouds
1:35 PM 36.0 °F 29.6 °F 25.7 °F 66% 29.98 in 10.0 mi North 8.1 mph - N/A   Clear
1:55 PM 35.6 °F 28.0 °F 26.6 °F 70% 29.99 in 10.0 mi North 10.4 mph - N/A   Clear
2:15 PM 35.6 °F 26.6 °F 26.6 °F 70% 29.99 in 10.0 mi North 13.8 mph - N/A   Clear
2:35 PM 34.2 °F 26.2 °F 27.0 °F 75% 29.99 in 10.0 mi North 10.4 mph - N/A   Clear
2:55 PM 34.3 °F 25.5 °F 27.7 °F 77% 30.00 in 10.0 mi North 12.7 mph 16.1 mph N/A   Scattered Clouds
3:15 PM 33.4 °F 25.4 °F 26.6 °F 76% 30.02 in 10.0 mi North 10.4 mph - N/A   Scattered Clouds
3:35 PM 32.9 °F 24.1 °F 26.2 °F 76% 30.03 in 10.0 mi North 11.5 mph - N/A   Mostly Cloudy
3:55 PM 32.4 °F 22.5 °F 25.3 °F 75% 30.04 in 10.0 mi North 13.8 mph - N/A   Overcast
4:15 PM 32.0 °F 24.2 °F 24.6 °F 74% 30.05 in 10.0 mi North 9.2 mph - N/A   Overcast
4:35 PM 32.0 °F 22.5 °F 23.0 °F 69% 30.06 in 10.0 mi North 12.7 mph - N/A   Overcast
4:55 PM 30.2 °F 20.8 °F 23.0 °F 75% 30.05 in 10.0 mi North 11.5 mph 16.1 mph N/A   Overcast
5:15 PM 30.2 °F 19.8 °F 22.8 °F 74% 30.06 in 10.0 mi North 13.8 mph - N/A   Mostly Cloudy
5:35 PM 30.0 °F 21.7 °F 22.3 °F 73% 30.07 in 10.0 mi North 9.2 mph - N/A   Mostly Cloudy
5:55 PM 29.7 °F 20.7 °F 21.9 °F 73% 30.09 in 10.0 mi North 10.4 mph 17.3 mph N/A   Overcast
6:15 PM 29.7 °F 21.3 °F 22.5 °F 75% 30.09 in 10.0 mi North 9.2 mph - N/A   Overcast
6:35 PM 29.1 °F 21.3 °F 21.4 °F 73% 30.10 in 10.0 mi North 8.1 mph - N/A   Mostly Cloudy
6:55 PM 28.4 °F 19.1 °F 20.7 °F 73% 30.11 in 10.0 mi NNE 10.4 mph - N/A   Scattered Clouds
7:15 PM 27.7 °F 19.6 °F 19.8 °F 72% 30.11 in 10.0 mi NNE 8.1 mph - N/A   Clear
7:35 PM 27.0 °F 18.0 °F 19.4 °F 73% 30.12 in 10.0 mi NNE 9.2 mph - N/A   Clear
7:55 PM 26.4 °F 17.3 °F 19.2 °F 74% 30.12 in 10.0 mi NNE 9.2 mph - N/A   Clear
8:15 PM 25.9 °F 18.2 °F 18.1 °F 73% 30.11 in 10.0 mi NNE 6.9 mph - N/A   Clear
8:35 PM 25.7 °F 19.0 °F 19.0 °F 76% 30.11 in 10.0 mi NNE 5.8 mph - N/A   Clear
8:55 PM 24.8 °F 16.9 °F 19.0 °F 79% 30.12 in 10.0 mi NNE 6.9 mph - N/A   Clear
9:15 PM 24.4 °F 15.6 °F 18.7 °F 79% 30.12 in 10.0 mi NNE 8.1 mph - N/A   Clear
9:35 PM 23.4 °F 12.8 °F 18.1 °F 80% 30.13 in 10.0 mi NE 10.4 mph - N/A   Clear
9:55 PM 22.5 °F 11.7 °F 16.7 °F 79% 30.13 in 10.0 mi NNE 10.4 mph - N/A   Clear
10:15 PM 21.9 °F 13.4 °F 17.1 °F 82% 30.13 in 10.0 mi NNE 6.9 mph - N/A   Clear
10:35 PM 21.2 °F 9.5 °F 16.0 °F 80% 30.13 in 10.0 mi NNE 11.5 mph 16.1 mph N/A   Clear
10:55 PM 20.8 °F 9.7 °F 15.3 °F 79% 30.13 in 10.0 mi NNE 10.4 mph - N/A   Clear
11:15 PM 20.3 °F 10.6 °F 14.4 °F 78% 30.13 in 10.0 mi NNE 8.1 mph - N/A   Clear
11:35 PM 20.3 °F 9.0 °F 14.0 °F 77% 30.11 in 10.0 mi NNE 10.4 mph - N/A   Clear
11:55 PM 19.8 °F 9.9 °F 12.9 °F 75% 30.11 in 10.0 mi NE 8.1 mph 17.3 mph N/A   Clear